HORYU 2

Satellite information

Favourite Embed

Satellite Type and Status

PAYLOADIN ORBIT

Key statistics

Satellite HORYU 2 at a glance.

Uptime

4958

Days in orbit

Revolutions

≈ 14.9

Per day

Orbit

SSO

Sun Synchronous Orbit

Inclination

98.2

Latest

Satellite identification and parameters

Extended collection of information and parameters for HORYU 2.

Object identification

Identified? True

Debris? False

Object name: HORYU 2

International designator: 2012-025D

Object number (NORAD): 38340

Object ID (CCSDS): 38340

Country: JAPAN (JPN)

Current information (Y/N): Y

RCS size: SMALL

Orbital parameters

Period: 96.679 minutes

Inclination: 98.195 deg

SMA: 6977.749 km

Apoapsis: 606.115 km

Periapsis: 593.113 km

RAAN: 107.0564 deg

Eccentricy: 0.00093166

Argument of periapsis: 75.4758 deg

Mean anomaly: 284.7491 deg

Mean motion: 14.89463051 rev/day

Mean motion (dot): 0.00006248 rev/day2

B* drag term: 0.00066205677 1/REarth

Two-line elements (TLE)

Creation date: Dec. 12, 2025, 10:14 a.m.

Reference frame: TEME

Reference center: EARTH

Epoch: Dec. 12, 2025, 6:10 a.m. UTC

TLE line 0: 0 HORYU 2

TLE line 1: 1 38340U 12025D 25346.25705018 .00006248 00000-0 66206-3 0 9999

TLE line 2: 2 38340 98.1950 107.0564 0009317 75.4758 284.7491 14.89463051720882

Live tracking on map

Real-time ground track for satellite HORYU 2.

In-orbit conjunctions

There are no conjunctions computed for HORYU 2, at the moment. Check back to stay up to date, as we update our databases every day.

Go to all conjunctions

Associated space launch

The GCOM-W (Global Change Observation Mission - Water) or Shizuku satellite aims to construct, use, and verify systems that enable continuous global-scale observations (for 10 to 15 years) of effective geophysical parameters for elucidating global climate change and water circulation mechanisms. Water circulation changes will be observed by a microwave radiometer onboard the GCOM-W (Water) satellite (scheduled to be launched in Japan Fiscal Year 2011). The GCOM-W will observe precipitation, vapor amounts, wind velocity above the ocean, sea water temperatures, water levels on land areas and snow depths. Climate change observation will be performed by a multi-wavelength optical radiometer onboard the GCOM-C (Climate) satellite (under consideration) on clouds, aerosol, seawater color (marine organisms), vegetation, snow and ice. These satellites will enable us to perform comprehensive observations of the surface layer of the Earth such as the atmosphere, including clouds, land, oceans and the cryosphere. The Advanced Microwave Scanning Radiometer 2 (AMSR2) is a sensor to observe radiometers, or microwaves emitted naturally from the ground, sea surface and atmosphere, using 6 different frequency bands ranging from 7 GHz to 89 GHz. The strength of a natural microwave is determined by its characteristics and moisture, including the surface condition and temperature of the material. Although it depends on the frequency, the microwave is very weak. AMSR2 will detect such weak microwaves at an altitude of 700 kilometers and measure the strength of them with a very high accuracy. For example, by measuring the strength of a microwave emitted from the sea surface with the AMSR2, one can understand the water temperature of the sea surface to an accuracy of 0.5 degrees Celsius.

HORYU 2 was lifted into orbit during the mission ‘H-IIA 202 | GCOM-W1’, on board a H-IIA space rocket.

The launch took place on May 17, 2012, 4:39 p.m. from Yoshinobu Launch Complex LP-1.

For more information about the launch, click the button.

Launch to space H-IIA 202 | GCOM-W1
H-IIA 202 | GCOM-W1

Agency: N/A

Status: Launch Successful

Launch date: May 17, 2012, 4:39 p.m. UTC

Rocket: H-IIA

Launch pad: Yoshinobu Launch Complex LP-1

Location: Tanegashima Space Center, Japan

...

Latest news about this satellite

There are no fresh news available about this satellite. Check back as we update our databases every day.


Newsletter sign-up

Weekly statistics, charts and insights to help you stay on top of the space industry.